Time,TemperatureF,DewpointF,PressureIn,WindDirection,WindDirectionDegrees,WindSpeedMPH,WindSpeedGustMPH,Humidity,HourlyPrecipIn,Conditions,Clouds,dailyrainin,SoftwareType,DateUTC
2013-10-20 00:00:00,37.2,33.1,30.03,SW,222,0.0,0.0,85,0.00,CLR,,0.53,WeatherDisplay:10.37,2013-10-20 04:00:00,
2013-10-20 00:01:00,37.2,33.1,30.03,SW,222,0.0,0.0,85,0.00,RA,,0.00,WeatherDisplay:10.37,2013-10-20 04:01:00,
2013-10-20 00:02:00,37.2,33.1,30.03,SW,222,0.0,0.0,85,0.00,RA,,0.00,WeatherDisplay:10.37,2013-10-20 04:02:00,
2013-10-20 00:04:00,37.2,33.1,30.03,SSW,199,0.0,0.0,85,0.00,RA,,0.00,WeatherDisplay:10.37,2013-10-20 04:04:00,
2013-10-20 00:09:00,37.2,33.1,30.03,South,177,0.0,0.0,85,0.00,RA,,0.00,WeatherDisplay:10.37,2013-10-20 04:09:00,
2013-10-20 00:14:00,37.0,32.9,30.03,South,177,0.0,0.0,85,0.00,CLR,,0.00,WeatherDisplay:10.37,2013-10-20 04:14:00,
2013-10-20 00:19:00,37.0,32.9,30.03,SSE,155,0.0,0.0,85,0.00,CLR,,0.00,WeatherDisplay:10.37,2013-10-20 04:19:00,
2013-10-20 00:24:00,37.0,32.9,30.03,SSE,155,1.6,1.6,85,0.00,CLR,,0.00,WeatherDisplay:10.37,2013-10-20 04:24:00,
2013-10-20 00:29:00,36.9,32.8,30.03,SSW,199,0.0,0.0,85,0.00,CLR,,0.00,WeatherDisplay:10.37,2013-10-20 04:29:00,
2013-10-20 00:34:00,37.0,32.9,30.03,South,177,0.0,1.1,85,0.00,CLR,,0.00,WeatherDisplay:10.37,2013-10-20 04:34:00,
2013-10-20 00:39:00,36.9,32.8,30.03,South,177,0.0,0.0,85,0.00,CLR,,0.00,WeatherDisplay:10.37,2013-10-20 04:39:00,
2013-10-20 00:44:00,36.7,32.6,30.03,SSE,155,0.0,0.0,85,0.00,CLR,,0.00,WeatherDisplay:10.37,2013-10-20 04:44:00,
2013-10-20 00:49:00,36.7,32.6,30.03,South,177,0.0,0.0,85,0.00,CLR,,0.00,WeatherDisplay:10.37,2013-10-20 04:49:00,
2013-10-20 00:54:00,36.7,32.9,30.03,South,177,0.0,0.0,86,0.00,CLR,,0.00,WeatherDisplay:10.37,2013-10-20 04:54:00,
2013-10-20 00:59:00,36.5,32.7,30.04,SSE,155,1.3,1.3,86,0.00,CLR,,0.00,WeatherDisplay:10.37,2013-10-20 04:59:00,
2013-10-20 01:04:00,36.5,32.7,30.03,SSW,199,0.0,0.0,86,0.00,CLR,,0.00,WeatherDisplay:10.37,2013-10-20 05:04:00,
2013-10-20 01:09:00,36.7,32.9,30.03,South,177,0.0,0.0,86,0.00,CLR,,0.00,WeatherDisplay:10.37,2013-10-20 05:09:00,
2013-10-20 01:14:00,36.7,32.9,30.03,South,177,1.1,1.1,86,0.00,CLR,,0.00,WeatherDisplay:10.37,2013-10-20 05:14:00,
2013-10-20 01:19:00,36.7,32.9,30.03,South,177,0.0,0.0,86,0.00,CLR,,0.00,WeatherDisplay:10.37,2013-10-20 05:19:00,
2013-10-20 01:24:00,36.5,32.7,30.03,SSW,199,0.0,0.0,86,0.00,CLR,,0.00,WeatherDisplay:10.37,2013-10-20 05:24:00,
2013-10-20 01:29:00,36.5,32.7,30.03,SSE,155,0.0,0.0,86,0.00,CLR,,0.00,WeatherDisplay:10.37,2013-10-20 05:29:00,
2013-10-20 01:34:00,36.3,32.5,30.03,SSE,155,0.0,0.0,86,0.00,CLR,,0.00,WeatherDisplay:10.37,2013-10-20 05:34:00,
2013-10-20 01:39:00,36.3,32.5,30.03,South,177,1.3,1.3,86,0.00,CLR,,0.00,WeatherDisplay:10.37,2013-10-20 05:39:00,
2013-10-20 01:44:00,36.1,32.4,30.03,SW,222,0.2,1.1,86,0.00,CLR,,0.00,WeatherDisplay:10.37,2013-10-20 05:44:00,
2013-10-20 01:49:00,36.1,32.4,30.03,South,177,0.0,0.0,86,0.00,CLR,,0.00,WeatherDisplay:10.37,2013-10-20 05:49:00,
2013-10-20 01:54:00,36.3,32.5,30.02,SSW,199,0.0,0.0,86,0.00,CLR,,0.00,WeatherDisplay:10.37,2013-10-20 05:54:00,
2013-10-20 01:59:00,36.3,32.5,30.02,SW,222,0.0,0.0,86,0.00,CLR,,0.00,WeatherDisplay:10.37,2013-10-20 05:59:00,
2013-10-20 02:04:00,36.5,32.7,30.02,SW,222,0.0,0.0,86,0.00,CLR,,0.00,WeatherDisplay:10.37,2013-10-20 06:04:00,
2013-10-20 02:09:00,36.3,32.5,30.02,South,177,0.0,0.0,86,0.00,CLR,,0.00,WeatherDisplay:10.37,2013-10-20 06:09:00,
2013-10-20 02:14:00,36.3,32.5,30.02,South,177,0.0,0.0,86,0.00,CLR,,0.00,WeatherDisplay:10.37,2013-10-20 06:14:00,
2013-10-20 02:19:00,36.3,32.5,30.02,South,177,0.0,0.0,86,0.00,CLR,,0.00,WeatherDisplay:10.37,2013-10-20 06:19:00,
2013-10-20 02:24:00,36.3,32.5,30.02,SSE,155,0.0,0.0,86,0.00,CLR,,0.00,WeatherDisplay:10.37,2013-10-20 06:24:00,
2013-10-20 02:29:00,36.3,32.5,30.02,South,177,0.0,0.0,86,0.00,CLR,,0.00,WeatherDisplay:10.37,2013-10-20 06:29:00,
2013-10-20 02:34:00,36.3,32.5,30.02,South,177,0.0,0.0,86,0.00,CLR,,0.00,WeatherDisplay:10.37,2013-10-20 06:34:00,
2013-10-20 02:39:00,36.1,32.4,30.02,SSE,155,0.0,0.0,86,0.00,CLR,,0.00,WeatherDisplay:10.37,2013-10-20 06:39:00,
2013-10-20 02:44:00,36.1,32.4,30.02,SSE,155,0.0,0.0,86,0.00,CLR,,0.00,WeatherDisplay:10.37,2013-10-20 06:44:00,
2013-10-20 02:49:00,36.0,32.2,30.02,SSW,199,0.0,0.0,86,0.00,CLR,,0.00,WeatherDisplay:10.37,2013-10-20 06:49:00,
2013-10-20 02:54:00,36.0,32.2,30.02,South,177,0.0,0.0,86,0.00,CLR,,0.00,WeatherDisplay:10.37,2013-10-20 06:54:00,
2013-10-20 02:59:00,35.8,32.0,30.02,SSW,199,1.1,1.6,86,0.00,CLR,,0.00,WeatherDisplay:10.37,2013-10-20 06:59:00,
2013-10-20 03:04:00,35.8,32.3,30.02,SSE,155,1.8,2.3,87,0.00,CLR,,0.00,WeatherDisplay:10.37,2013-10-20 07:04:00,
2013-10-20 03:09:00,35.8,32.3,30.02,SSE,155,1.7,2.3,87,0.00,CLR,,0.00,WeatherDisplay:10.37,2013-10-20 07:09:00,
2013-10-20 03:14:00,35.8,32.3,30.02,SW,222,0.6,1.1,87,0.00,CLR,,0.00,WeatherDisplay:10.37,2013-10-20 07:14:00,
2013-10-20 03:19:00,35.8,32.3,30.02,South,177,0.0,0.0,87,0.00,CLR,,0.00,WeatherDisplay:10.37,2013-10-20 07:19:00,
2013-10-20 03:24:00,35.8,32.3,30.02,South,177,0.0,0.0,87,0.00,CLR,,0.00,WeatherDisplay:10.37,2013-10-20 07:24:00,
2013-10-20 03:29:00,35.8,32.3,30.02,South,177,1.8,2.7,87,0.00,CLR,,0.00,WeatherDisplay:10.37,2013-10-20 07:29:00,
2013-10-20 03:34:00,35.8,32.3,30.02,SW,222,0.0,0.0,87,0.00,CLR,,0.00,WeatherDisplay:10.37,2013-10-20 07:34:00,
2013-10-20 03:39:00,35.8,32.3,30.02,SW,222,0.0,0.0,87,0.00,CLR,,0.00,WeatherDisplay:10.37,2013-10-20 07:39:00,
2013-10-20 03:44:00,35.8,32.3,30.02,SW,222,0.0,0.0,87,0.00,CLR,,0.00,WeatherDisplay:10.37,2013-10-20 07:44:00,
2013-10-20 03:49:00,35.6,32.1,30.02,South,177,0.0,2.3,87,0.00,CLR,,0.00,WeatherDisplay:10.37,2013-10-20 07:49:00,
2013-10-20 03:54:00,35.4,31.9,30.01,SSW,199,0.0,1.6,87,0.00,CLR,,0.00,WeatherDisplay:10.37,2013-10-20 07:54:00,
2013-10-20 03:59:00,35.4,31.9,30.01,South,177,0.0,0.0,87,0.00,CLR,,0.00,WeatherDisplay:10.37,2013-10-20 07:59:00,
2013-10-20 04:04:00,35.4,31.9,30.01,SSE,155,0.0,0.0,87,0.00,CLR,,0.00,WeatherDisplay:10.37,2013-10-20 08:04:00,
2013-10-20 04:09:00,35.4,31.9,30.02,South,177,2.2,2.3,87,0.00,CLR,,0.00,WeatherDisplay:10.37,2013-10-20 08:09:00,
2013-10-20 04:14:00,35.2,31.8,30.02,SSW,199,3.8,3.8,87,0.00,CLR,,0.00,WeatherDisplay:10.37,2013-10-20 08:14:00,
2013-10-20 04:19:00,35.2,31.8,30.02,SSW,199,0.9,1.1,87,0.00,CLR,,0.00,WeatherDisplay:10.37,2013-10-20 08:19:00,
2013-10-20 04:24:00,35.2,31.8,30.02,SSW,199,0.6,2.2,87,0.00,CLR,,0.00,WeatherDisplay:10.37,2013-10-20 08:24:00,
2013-10-20 04:29:00,35.2,31.8,30.02,SW,222,1.0,1.1,87,0.00,CLR,,0.00,WeatherDisplay:10.37,2013-10-20 08:29:00,
2013-10-20 04:34:00,35.2,31.8,30.02,West,267,0.0,0.0,87,0.00,CLR,,0.00,WeatherDisplay:10.37,2013-10-20 08:34:00,
2013-10-20 04:39:00,35.2,31.8,30.01,SW,222,1.5,2.3,87,0.00,CLR,,0.00,WeatherDisplay:10.37,2013-10-20 08:39:00,
2013-10-20 04:44:00,35.2,31.8,30.01,SW,222,0.0,0.0,87,0.00,CLR,,0.00,WeatherDisplay:10.37,2013-10-20 08:44:00,
2013-10-20 04:49:00,35.2,31.8,30.02,SSW,199,0.0,1.1,87,0.00,CLR,,0.00,WeatherDisplay:10.37,2013-10-20 08:49:00,
2013-10-20 04:54:00,35.4,31.9,30.02,SSW,199,1.4,1.4,87,0.00,CLR,,0.00,WeatherDisplay:10.37,2013-10-20 08:54:00,
2013-10-20 04:59:00,35.2,31.8,30.02,SSW,199,0.0,0.0,87,0.00,CLR,,0.00,WeatherDisplay:10.37,2013-10-20 08:59:00,
2013-10-20 05:04:00,35.2,31.8,30.02,SSW,199,0.0,0.0,87,0.00,CLR,,0.00,WeatherDisplay:10.37,2013-10-20 09:04:00,
2013-10-20 05:09:00,35.2,31.8,30.02,South,177,0.0,0.0,87,0.00,CLR,,0.00,WeatherDisplay:10.37,2013-10-20 09:09:00,
2013-10-20 05:14:00,35.2,31.8,30.02,SSW,199,0.3,1.1,87,0.00,CLR,,0.00,WeatherDisplay:10.37,2013-10-20 09:14:00,
2013-10-20 05:19:00,35.2,31.8,30.02,South,177,0.0,0.0,87,0.00,CLR,,0.00,WeatherDisplay:10.37,2013-10-20 09:19:00,
2013-10-20 05:24:00,35.2,31.8,30.02,SSW,199,0.0,0.0,87,0.00,CLR,,0.00,WeatherDisplay:10.37,2013-10-20 09:24:00,
2013-10-20 05:29:00,34.9,31.4,30.02,SSE,155,0.0,0.0,87,0.00,CLR,,0.00,WeatherDisplay:10.37,2013-10-20 09:29:00,
2013-10-20 05:34:00,34.9,31.7,30.02,South,177,1.3,1.3,88,0.00,CLR,,0.00,WeatherDisplay:10.37,2013-10-20 09:34:00,
2013-10-20 05:39:00,34.9,31.7,30.02,South,177,0.7,1.1,88,0.00,CLR,,0.00,WeatherDisplay:10.37,2013-10-20 09:39:00,
2013-10-20 05:44:00,34.9,31.7,30.02,SSE,155,0.0,0.0,88,0.00,CLR,,0.00,WeatherDisplay:10.37,2013-10-20 09:44:00,
2013-10-20 05:49:00,34.9,31.7,30.02,SE,132,1.1,1.1,88,0.00,CLR,,0.00,WeatherDisplay:10.37,2013-10-20 09:49:00,
2013-10-20 05:54:00,34.9,31.7,30.02,SSW,199,0.0,0.0,88,0.00,CLR,,0.00,WeatherDisplay:10.37,2013-10-20 09:54:00,
2013-10-20 05:59:00,34.9,31.7,30.03,South,177,0.0,0.0,88,0.00,CLR,,0.00,WeatherDisplay:10.37,2013-10-20 09:59:00,
2013-10-20 06:04:00,34.9,31.7,30.02,SSW,199,0.0,0.0,88,0.00,CLR,,0.00,WeatherDisplay:10.37,2013-10-20 10:04:00,
2013-10-20 06:09:00,34.9,31.7,30.02,South,177,1.3,2.3,88,0.00,CLR,,0.00,WeatherDisplay:10.37,2013-10-20 10:09:00,
2013-10-20 06:14:00,34.7,31.5,30.02,South,177,0.6,2.3,88,0.00,CLR,,0.00,WeatherDisplay:10.37,2013-10-20 10:14:00,
2013-10-20 06:19:00,34.7,31.5,30.02,South,177,0.0,0.0,88,0.00,CLR,,0.00,WeatherDisplay:10.37,2013-10-20 10:19:00,
2013-10-20 06:24:00,34.5,31.3,30.03,SSW,199,2.7,2.9,88,0.00,CLR,,0.00,WeatherDisplay:10.37,2013-10-20 10:24:00,
2013-10-20 06:29:00,34.5,31.3,30.03,WSW,245,0.0,0.0,88,0.00,CLR,,0.00,WeatherDisplay:10.37,2013-10-20 10:29:00,
2013-10-20 06:34:00,34.5,31.3,30.03,South,177,0.0,0.0,88,0.00,CLR,,0.00,WeatherDisplay:10.37,2013-10-20 10:34:00,
2013-10-20 06:39:00,34.7,31.5,30.03,SSW,199,2.0,3.8,88,0.00,CLR,,0.00,WeatherDisplay:10.37,2013-10-20 10:39:00,
2013-10-20 06:44:00,34.7,31.5,30.03,SSW,199,0.0,1.1,88,0.00,CLR,,0.00,WeatherDisplay:10.37,2013-10-20 10:44:00,
2013-10-20 06:49:00,34.7,31.5,30.03,South,177,0.0,0.0,88,0.00,CLR,,0.00,WeatherDisplay:10.37,2013-10-20 10:49:00,
2013-10-20 06:54:00,34.7,31.5,30.03,South,177,0.0,0.0,88,0.00,CLR,,0.00,WeatherDisplay:10.37,2013-10-20 10:54:00,
2013-10-20 06:59:00,34.7,31.5,30.03,South,177,1.0,1.6,88,0.00,CLR,,0.00,WeatherDisplay:10.37,2013-10-20 10:59:00,
2013-10-20 07:04:00,34.7,31.5,30.03,South,177,0.0,0.0,88,0.00,CLR,,0.00,WeatherDisplay:10.37,2013-10-20 11:04:00,
2013-10-20 07:09:00,34.7,31.5,30.03,SSE,155,0.0,0.0,88,0.00,CLR,,0.00,WeatherDisplay:10.37,2013-10-20 11:09:00,
2013-10-20 07:14:00,34.7,31.5,30.04,SSE,155,0.0,0.0,88,0.00,CLR,,0.00,WeatherDisplay:10.37,2013-10-20 11:14:00,
2013-10-20 07:19:00,34.5,31.3,30.04,SSE,155,0.0,0.0,88,0.00,CLR,,0.00,WeatherDisplay:10.37,2013-10-20 11:19:00,
2013-10-20 07:24:00,34.5,31.3,30.04,South,177,1.1,1.1,88,0.00,CLR,,0.00,WeatherDisplay:10.37,2013-10-20 11:24:00,
2013-10-20 07:29:00,34.3,30.9,30.04,South,177,0.0,0.0,87,0.00,CLR,,0.00,WeatherDisplay:10.37,2013-10-20 11:29:00,
2013-10-20 07:34:00,34.3,30.9,30.04,South,177,0.0,0.0,87,0.00,CLR,,0.00,WeatherDisplay:10.37,2013-10-20 11:34:00,
2013-10-20 07:39:00,34.3,30.9,30.04,South,177,1.3,2.3,87,0.00,CLR,,0.00,WeatherDisplay:10.37,2013-10-20 11:39:00,
2013-10-20 07:44:00,34.3,30.9,30.04,SSE,155,0.0,3.5,87,0.00,CLR,,0.00,WeatherDisplay:10.37,2013-10-20 11:44:00,
2013-10-20 07:49:00,34.3,30.9,30.04,South,177,0.0,0.0,87,0.00,CLR,,0.00,WeatherDisplay:10.37,2013-10-20 11:49:00,
2013-10-20 07:54:00,34.3,30.9,30.04,SSE,155,1.1,2.3,87,0.00,CLR,,0.00,WeatherDisplay:10.37,2013-10-20 11:54:00,
2013-10-20 07:59:00,34.3,30.9,30.04,SSW,199,2.2,2.3,87,0.00,CLR,,0.00,WeatherDisplay:10.37,2013-10-20 11:59:00,
2013-10-20 08:04:00,34.3,30.9,30.03,South,177,2.0,2.3,87,0.00,CLR,,0.00,WeatherDisplay:10.37,2013-10-20 12:04:00,
2013-10-20 08:09:00,34.3,30.9,30.04,South,177,0.0,0.0,87,0.00,CLR,,0.00,WeatherDisplay:10.37,2013-10-20 12:09:00,
2013-10-20 08:14:00,34.3,30.9,30.05,SSE,155,2.0,2.3,87,0.00,CLR,,0.00,WeatherDisplay:10.37,2013-10-20 12:14:00,
2013-10-20 08:19:00,34.3,30.9,30.04,SSW,199,0.0,0.0,87,0.00,CLR,,0.00,WeatherDisplay:10.37,2013-10-20 12:19:00,
2013-10-20 08:24:00,34.3,30.9,30.04,SSW,199,0.0,0.0,87,0.00,CLR,,0.00,WeatherDisplay:10.37,2013-10-20 12:24:00,
2013-10-20 08:29:00,34.7,31.5,30.05,South,177,2.7,2.7,88,0.00,CLR,,0.00,WeatherDisplay:10.37,2013-10-20 12:29:00,
2013-10-20 08:34:00,34.9,31.7,30.05,WSW,245,0.0,0.0,88,0.00,CLR,,0.00,WeatherDisplay:10.37,2013-10-20 12:34:00,
2013-10-20 08:39:00,34.9,31.7,30.05,SSW,199,1.8,2.9,88,0.00,CLR,,0.00,WeatherDisplay:10.37,2013-10-20 12:39:00,
2013-10-20 08:44:00,35.2,32.0,30.05,SSE,155,0.0,3.5,88,0.00,CLR,,0.00,WeatherDisplay:10.37,2013-10-20 12:44:00,
2013-10-20 08:49:00,35.4,32.2,30.05,SSW,199,2.0,2.3,88,0.00,CLR,,0.00,WeatherDisplay:10.37,2013-10-20 12:49:00,
2013-10-20 08:54:00,35.8,32.6,30.05,SW,222,1.8,2.0,88,0.00,CLR,,0.00,WeatherDisplay:10.37,2013-10-20 12:54:00,
2013-10-20 08:59:00,35.8,32.6,30.05,SSW,199,3.8,3.8,88,0.00,CLR,,0.00,WeatherDisplay:10.37,2013-10-20 12:59:00,
2013-10-20 09:04:00,36.1,32.9,30.05,SSE,155,1.0,0.0,88,0.00,CLR,,0.00,WeatherDisplay:10.37,2013-10-20 13:04:00,
2013-10-20 09:09:00,36.7,33.5,30.06,South,177,0.0,0.0,88,0.00,CLR,,0.00,WeatherDisplay:10.37,2013-10-20 13:09:00,
2013-10-20 09:14:00,36.9,33.6,30.06,South,177,0.0,0.0,88,0.00,CLR,,0.00,WeatherDisplay:10.37,2013-10-20 13:14:00,
2013-10-20 09:19:00,37.2,34.0,30.06,SSW,199,6.7,6.9,88,0.00,CLR,,0.00,WeatherDisplay:10.37,2013-10-20 13:19:00,
2013-10-20 09:24:00,37.8,34.5,30.06,SE,132,3.8,4.0,88,0.00,CLR,,0.00,WeatherDisplay:10.37,2013-10-20 13:24:00,
2013-10-20 09:29:00,38.1,34.9,30.06,South,177,5.1,5.1,88,0.00,CLR,,0.00,WeatherDisplay:10.37,2013-10-20 13:29:00,
2013-10-20 09:34:00,39.0,35.8,30.07,West,267,0.0,0.0,88,0.00,CLR,,0.00,WeatherDisplay:10.37,2013-10-20 13:34:00,
2013-10-20 09:39:00,39.7,36.8,30.07,WSW,245,4.0,4.6,89,0.00,CLR,,0.00,WeatherDisplay:10.37,2013-10-20 13:39:00,
2013-10-20 09:44:00,40.6,37.7,30.07,SSE,155,4.3,4.6,89,0.00,CLR,,0.00,WeatherDisplay:10.37,2013-10-20 13:44:00,
2013-10-20 09:49:00,41.5,38.5,30.07,SSW,199,2.5,2.5,89,0.00,CLR,,0.00,WeatherDisplay:10.37,2013-10-20 13:49:00,
2013-10-20 09:54:00,42.6,39.6,30.07,SW,222,6.7,6.9,89,0.00,CLR,,0.00,WeatherDisplay:10.37,2013-10-20 13:54:00,
2013-10-20 09:59:00,43.7,40.7,30.07,SW,222,0.0,10.4,89,0.00,CLR,,0.00,WeatherDisplay:10.37,2013-10-20 13:59:00,
2013-10-20 10:04:00,44.6,41.6,30.07,South,177,3.6,3.6,89,0.00,CLR,,0.00,WeatherDisplay:10.37,2013-10-20 14:04:00,
2013-10-20 10:09:00,46.0,42.7,30.07,SSW,199,2.9,3.5,88,0.00,CLR,,0.00,WeatherDisplay:10.37,2013-10-20 14:09:00,
2013-10-20 10:14:00,46.9,43.6,30.07,SSE,155,0.0,3.5,88,0.00,CLR,,0.00,WeatherDisplay:10.37,2013-10-20 14:14:00,
2013-10-20 10:19:00,47.8,44.5,30.07,WSW,245,3.4,3.5,88,0.00,CLR,,0.00,WeatherDisplay:10.37,2013-10-20 14:19:00,
2013-10-20 10:24:00,49.1,45.4,30.07,WSW,245,5.3,5.8,87,0.00,CLR,,0.00,WeatherDisplay:10.37,2013-10-20 14:24:00,
2013-10-20 10:29:00,49.6,45.3,30.07,SW,222,3.4,3.5,85,0.00,CLR,,0.00,WeatherDisplay:10.37,2013-10-20 14:29:00,
2013-10-20 10:34:00,50.2,45.8,30.07,SW,222,7.2,7.2,85,0.00,CLR,,0.00,WeatherDisplay:10.37,2013-10-20 14:34:00,
2013-10-20 10:39:00,51.3,46.0,30.07,SSE,155,8.4,10.5,82,0.00,CLR,,0.00,WeatherDisplay:10.37,2013-10-20 14:39:00,
2013-10-20 10:44:00,51.8,46.5,30.07,WSW,245,8.4,8.4,82,0.00,CLR,,0.00,WeatherDisplay:10.37,2013-10-20 14:44:00,
2013-10-20 10:49:00,52.5,46.5,30.07,SSW,199,7.8,8.1,80,0.00,CLR,,0.00,WeatherDisplay:10.37,2013-10-20 14:49:00,
2013-10-20 10:54:00,53.4,47.1,30.07,South,177,6.3,8.1,79,0.00,CLR,,0.00,WeatherDisplay:10.37,2013-10-20 14:54:00,
2013-10-20 10:59:00,54.1,47.4,30.07,SSE,155,5.1,8.1,78,0.00,CLR,,0.00,WeatherDisplay:10.37,2013-10-20 14:59:00,
2013-10-20 11:04:00,54.7,47.6,30.07,SW,222,1.8,2.3,77,0.00,CLR,,0.00,WeatherDisplay:10.37,2013-10-20 15:04:00,
2013-10-20 11:09:00,55.2,47.4,30.07,SSW,199,7.3,11.2,75,0.00,CLR,,0.00,WeatherDisplay:10.37,2013-10-20 15:09:00,
2013-10-20 11:14:00,55.8,47.6,30.07,South,177,6.7,6.9,74,0.00,CLR,,0.00,WeatherDisplay:10.37,2013-10-20 15:14:00,
2013-10-20 11:19:00,56.1,47.6,30.07,WSW,245,9.2,9.2,73,0.00,CLR,,0.00,WeatherDisplay:10.37,2013-10-20 15:19:00,
2013-10-20 11:24:00,57.0,48.1,30.07,SSW,199,4.8,5.8,72,0.00,CLR,,0.00,WeatherDisplay:10.37,2013-10-20 15:24:00,
2013-10-20 11:29:00,57.6,48.2,30.07,SSW,199,6.7,6.9,71,0.00,CLR,,0.00,WeatherDisplay:10.37,2013-10-20 15:29:00,
2013-10-20 11:34:00,58.1,48.4,30.07,West,267,6.0,7.2,70,0.00,CLR,,0.00,WeatherDisplay:10.37,2013-10-20 15:34:00,
2013-10-20 11:39:00,58.8,48.7,30.07,SW,222,3.7,3.8,69,0.00,CLR,,0.00,WeatherDisplay:10.37,2013-10-20 15:39:00,
2013-10-20 11:44:00,59.4,48.4,30.07,WSW,245,7.4,7.4,67,0.00,CLR,,0.00,WeatherDisplay:10.37,2013-10-20 15:44:00,
2013-10-20 11:49:00,59.9,48.9,30.07,SE,132,5.6,5.8,67,0.00,CLR,,0.00,WeatherDisplay:10.37,2013-10-20 15:49:00,
2013-10-20 11:54:00,60.4,49.0,30.07,West,267,3.8,3.8,66,0.00,CLR,,0.00,WeatherDisplay:10.37,2013-10-20 15:54:00,
2013-10-20 11:59:00,60.6,48.8,30.07,South,177,9.8,10.4,65,0.00,CLR,,0.00,WeatherDisplay:10.37,2013-10-20 15:59:00,
2013-10-20 12:04:00,61.0,49.1,30.07,West,267,2.9,3.5,65,0.00,CLR,,0.00,WeatherDisplay:10.37,2013-10-20 16:04:00,
2013-10-20 12:09:00,61.2,48.5,30.07,SSE,155,8.0,8.1,63,0.00,CLR,,0.00,WeatherDisplay:10.37,2013-10-20 16:09:00,
2013-10-20 12:14:00,61.5,48.4,30.07,SSW,199,0.0,10.4,62,0.00,CLR,,0.00,WeatherDisplay:10.37,2013-10-20 16:14:00,
2013-10-20 12:19:00,61.9,48.3,30.07,SSW,199,6.7,6.9,61,0.00,CLR,,0.00,WeatherDisplay:10.37,2013-10-20 16:19:00,
2013-10-20 12:24:00,61.9,48.3,30.07,WNW,289,13.2,13.2,61,0.00,CLR,,0.00,WeatherDisplay:10.37,2013-10-20 16:24:00,
2013-10-20 12:29:00,61.9,48.3,30.07,WSW,245,4.5,5.8,61,0.00,CLR,,0.00,WeatherDisplay:10.37,2013-10-20 16:29:00,
2013-10-20 12:34:00,62.1,48.4,30.07,SW,222,5.2,5.2,61,0.00,CLR,,0.00,WeatherDisplay:10.37,2013-10-20 16:34:00,
2013-10-20 12:36:00,62.4,48.3,30.07,SE,132,2.8,3.5,60,0.00,CLR,,0.00,WeatherDisplay:10.37,2013-10-20 16:36:00,
2013-10-20 12:41:00,62.4,48.3,30.07,SSW,199,3.3,4.6,60,0.00,CLR,,0.00,WeatherDisplay:10.37,2013-10-20 16:41:00,
2013-10-20 12:46:00,63.7,49.5,30.07,SE,132,4.5,4.6,60,0.00,CLR,,0.00,WeatherDisplay:10.37,2013-10-20 16:46:00,
2013-10-20 12:51:00,63.5,49.4,30.07,South,177,0.7,10.4,60,0.00,CLR,,0.00,WeatherDisplay:10.37,2013-10-20 16:51:00,
2013-10-20 12:56:00,63.7,49.5,30.07,WSW,245,3.9,4.6,60,0.00,CLR,,0.00,WeatherDisplay:10.37,2013-10-20 16:56:00,
2013-10-20 13:01:00,64.2,50.0,30.07,WSW,245,4.4,4.6,60,0.00,CLR,,0.00,WeatherDisplay:10.37,2013-10-20 17:01:00,
2013-10-20 13:06:00,64.9,50.7,30.06,WSW,245,4.4,5.8,60,0.00,CLR,,0.00,WeatherDisplay:10.37,2013-10-20 17:06:00,
2013-10-20 13:11:00,64.9,50.7,30.06,NW,312,5.8,5.8,60,0.00,CLR,,0.00,WeatherDisplay:10.37,2013-10-20 17:11:00,
2013-10-20 13:16:00,65.3,49.2,30.06,SE,132,2.6,5.8,56,0.00,CLR,,0.00,WeatherDisplay:10.37,2013-10-20 17:16:00,
2013-10-20 13:21:00,65.5,48.9,30.06,South,177,10.5,12.7,55,0.00,CLR,,0.00,WeatherDisplay:10.37,2013-10-20 17:21:00,
2013-10-20 13:26:00,65.5,48.4,30.05,SW,222,5.7,5.8,54,0.00,CLR,,0.00,WeatherDisplay:10.37,2013-10-20 17:26:00,
2013-10-20 13:31:00,65.5,48.4,30.05,SE,132,5.8,5.8,54,0.00,CLR,,0.00,WeatherDisplay:10.37,2013-10-20 17:31:00,
2013-10-20 13:36:00,65.7,48.6,30.05,SW,222,3.6,8.1,54,0.00,CLR,,0.00,WeatherDisplay:10.37,2013-10-20 17:36:00,
2013-10-20 13:41:00,65.7,47.5,30.05,SE,132,7.6,7.6,52,0.00,CLR,,0.00,WeatherDisplay:10.37,2013-10-20 17:41:00,
2013-10-20 13:46:00,65.7,48.1,30.04,SW,222,4.0,5.8,53,0.00,CLR,,0.00,WeatherDisplay:10.37,2013-10-20 17:46:00,
2013-10-20 13:51:00,65.5,47.4,30.04,SW,222,2.7,4.6,52,0.00,CLR,,0.00,WeatherDisplay:10.37,2013-10-20 17:51:00,
2013-10-20 13:56:00,65.5,47.4,30.04,South,177,3.6,4.6,52,0.00,CLR,,0.00,WeatherDisplay:10.37,2013-10-20 17:56:00,
2013-10-20 14:01:00,65.7,47.5,30.04,West,267,7.6,15.0,52,0.00,CLR,,0.00,WeatherDisplay:10.37,2013-10-20 18:01:00,
2013-10-20 14:06:00,65.5,47.4,30.04,SSW,199,9.8,11.5,52,0.00,CLR,,0.00,WeatherDisplay:10.37,2013-10-20 18:06:00,
2013-10-20 14:11:00,65.5,47.4,30.04,SSE,155,2.9,6.9,52,0.00,CLR,,0.00,WeatherDisplay:10.37,2013-10-20 18:11:00,
2013-10-20 14:16:00,65.7,47.5,30.03,SSW,199,5.5,11.5,52,0.00,CLR,,0.00,WeatherDisplay:10.37,2013-10-20 18:16:00,
2013-10-20 14:21:00,66.0,47.4,30.03,SE,132,7.7,11.5,51,0.00,CLR,,0.00,WeatherDisplay:10.37,2013-10-20 18:21:00,
2013-10-20 14:26:00,66.0,47.9,30.03,SE,132,3.5,6.9,52,0.00,CLR,,0.00,WeatherDisplay:10.37,2013-10-20 18:26:00,
2013-10-20 14:31:00,66.2,47.5,30.03,SSW,199,5.9,5.9,51,0.00,CLR,,0.00,WeatherDisplay:10.37,2013-10-20 18:31:00,
2013-10-20 14:36:00,66.2,47.5,30.03,West,267,4.8,9.2,51,0.00,CLR,,0.00,WeatherDisplay:10.37,2013-10-20 18:36:00,
2013-10-20 14:41:00,66.0,46.8,30.02,SSW,199,5.6,9.2,50,0.00,CLR,,0.00,WeatherDisplay:10.37,2013-10-20 18:41:00,
2013-10-20 14:46:00,65.5,45.8,30.02,WSW,245,4.1,4.6,49,0.00,CLR,,0.00,WeatherDisplay:10.37,2013-10-20 18:46:00,
2013-10-20 14:51:00,65.5,46.3,30.02,WSW,245,4.9,5.8,50,0.00,CLR,,0.00,WeatherDisplay:10.37,2013-10-20 18:51:00,
2013-10-20 14:56:00,65.5,46.3,30.02,SSE,155,5.8,5.8,50,0.00,CLR,,0.00,WeatherDisplay:10.37,2013-10-20 18:56:00,
2013-10-20 15:01:00,65.5,46.3,30.02,WSW,245,1.3,1.3,50,0.00,CLR,,0.00,WeatherDisplay:10.37,2013-10-20 19:01:00,
2013-10-20 15:06:00,65.5,46.3,30.02,WNW,289,7.5,8.1,50,0.00,CLR,,0.00,WeatherDisplay:10.37,2013-10-20 19:06:00,
2013-10-20 15:11:00,65.3,45.6,30.02,SW,222,2.5,8.0,49,0.00,CLR,,0.00,WeatherDisplay:10.37,2013-10-20 19:11:00,
2013-10-20 15:16:00,65.5,45.8,30.01,SW,222,5.6,8.1,49,0.00,CLR,,0.00,WeatherDisplay:10.37,2013-10-20 19:16:00,
2013-10-20 15:21:00,65.7,46.5,30.01,WSW,245,3.6,4.6,50,0.00,CLR,,0.00,WeatherDisplay:10.37,2013-10-20 19:21:00,
2013-10-20 15:26:00,65.8,46.7,30.01,South,177,7.2,8.1,50,0.00,CLR,,0.00,WeatherDisplay:10.37,2013-10-20 19:26:00,
2013-10-20 15:31:00,65.8,46.1,30.01,South,177,3.3,4.6,49,0.00,CLR,,0.00,WeatherDisplay:10.37,2013-10-20 19:31:00,
2013-10-20 15:36:00,65.8,46.1,30.01,SSW,199,1.9,4.6,49,0.00,CLR,,0.00,WeatherDisplay:10.37,2013-10-20 19:36:00,
2013-10-20 15:41:00,65.8,46.1,30.01,West,267,6.6,6.9,49,0.00,CLR,,0.00,WeatherDisplay:10.37,2013-10-20 19:41:00,
2013-10-20 15:46:00,65.8,45.6,30.01,SW,222,3.5,5.8,48,0.00,CLR,,0.00,WeatherDisplay:10.37,2013-10-20 19:46:00,
2013-10-20 15:51:00,65.7,45.4,30.01,WSW,245,5.1,6.9,48,0.00,CLR,,0.00,WeatherDisplay:10.37,2013-10-20 19:51:00,
2013-10-20 15:56:00,65.3,45.1,30.01,SW,222,9.6,9.6,48,0.00,CLR,,0.00,WeatherDisplay:10.37,2013-10-20 19:56:00,
2013-10-20 16:01:00,65.3,45.1,30.01,West,267,3.5,5.1,48,0.00,CLR,,0.00,WeatherDisplay:10.37,2013-10-20 20:01:00,
2013-10-20 16:06:00,65.5,45.8,30.01,SSW,199,4.8,6.9,49,0.00,CLR,,0.00,WeatherDisplay:10.37,2013-10-20 20:06:00,
2013-10-20 16:11:00,65.5,45.3,30.00,SW,222,2.4,3.8,48,0.00,CLR,,0.00,WeatherDisplay:10.37,2013-10-20 20:11:00,
2013-10-20 16:16:00,65.1,44.9,30.01,WSW,245,3.6,5.8,48,0.00,CLR,,0.00,WeatherDisplay:10.37,2013-10-20 20:16:00,
2013-10-20 16:21:00,65.1,44.4,30.01,West,267,3.4,3.5,47,0.00,CLR,,0.00,WeatherDisplay:10.37,2013-10-20 20:21:00,
2013-10-20 16:26:00,64.8,44.6,30.01,South,177,8.6,9.4,48,0.00,CLR,,0.00,WeatherDisplay:10.37,2013-10-20 20:26:00,
2013-10-20 16:31:00,64.6,44.4,30.01,WSW,245,0.9,3.8,48,0.00,CLR,,0.00,WeatherDisplay:10.37,2013-10-20 20:31:00,
2013-10-20 16:36:00,64.8,44.6,30.01,SSW,199,4.0,5.8,48,0.00,CLR,,0.00,WeatherDisplay:10.37,2013-10-20 20:36:00,
2013-10-20 16:41:00,64.6,44.4,30.00,South,177,3.1,3.5,48,0.00,CLR,,0.00,WeatherDisplay:10.37,2013-10-20 20:41:00,
2013-10-20 16:46:00,64.2,44.1,30.00,SW,222,7.4,8.1,48,0.00,CLR,,0.00,WeatherDisplay:10.37,2013-10-20 20:46:00,
2013-10-20 16:51:00,64.2,44.1,30.00,WSW,245,6.3,6.3,48,0.00,CLR,,0.00,WeatherDisplay:10.37,2013-10-20 20:51:00,
2013-10-20 16:56:00,64.2,44.1,30.00,WSW,245,8.9,9.2,48,0.00,CLR,,0.00,WeatherDisplay:10.37,2013-10-20 20:56:00,
2013-10-20 17:01:00,64.0,43.9,30.00,SSE,155,3.2,4.6,48,0.00,CLR,,0.00,WeatherDisplay:10.37,2013-10-20 21:01:00,
2013-10-20 17:06:00,64.0,43.9,30.00,SW,222,3.4,3.5,48,0.00,CLR,,0.00,WeatherDisplay:10.37,2013-10-20 21:06:00,
2013-10-20 17:11:00,63.7,43.6,30.00,SSE,155,1.1,1.1,48,0.00,CLR,,0.00,WeatherDisplay:10.37,2013-10-20 21:11:00,
2013-10-20 17:16:00,63.7,44.2,30.00,South,177,1.3,2.3,49,0.00,CLR,,0.00,WeatherDisplay:10.37,2013-10-20 21:16:00,
2013-10-20 17:21:00,63.5,44.0,30.00,SW,222,5.4,5.8,49,0.00,CLR,,0.00,WeatherDisplay:10.37,2013-10-20 21:21:00,
2013-10-20 17:26:00,63.3,43.8,30.00,West,267,3.6,3.8,49,0.00,CLR,,0.00,WeatherDisplay:10.37,2013-10-20 21:26:00,
2013-10-20 17:31:00,63.1,43.7,30.00,SW,222,4.7,5.1,49,0.00,CLR,,0.00,WeatherDisplay:10.37,2013-10-20 21:31:00,
2013-10-20 17:36:00,62.8,43.3,30.00,WSW,245,2.5,5.8,49,0.00,CLR,,0.00,WeatherDisplay:10.37,2013-10-20 21:36:00,
2013-10-20 17:41:00,62.8,42.8,30.01,South,177,4.9,4.9,48,0.00,CLR,,0.00,WeatherDisplay:10.37,2013-10-20 21:41:00,
2013-10-20 17:46:00,62.4,42.5,30.00,SSE,155,4.5,4.6,48,0.00,CLR,,0.00,WeatherDisplay:10.37,2013-10-20 21:46:00,
2013-10-20 17:51:00,61.9,42.0,30.00,WSW,245,4.1,4.9,48,0.00,CLR,,0.00,WeatherDisplay:10.37,2013-10-20 21:51:00,
2013-10-20 17:56:00,61.7,42.3,30.00,West,267,5.0,5.8,49,0.00,CLR,,0.00,WeatherDisplay:10.37,2013-10-20 21:56:00,
2013-10-20 18:01:00,61.5,42.2,30.00,NW,312,1.0,1.1,49,0.00,CLR,,0.00,WeatherDisplay:10.37,2013-10-20 22:01:00,
2013-10-20 18:06:00,61.3,42.5,30.00,South,177,0.0,0.0,50,0.00,CLR,,0.00,WeatherDisplay:10.37,2013-10-20 22:06:00,
2013-10-20 18:11:00,61.0,42.2,30.00,SSE,155,1.9,2.3,50,0.00,CLR,,0.00,WeatherDisplay:10.37,2013-10-20 22:11:00,
2013-10-20 18:16:00,61.0,42.7,30.00,SSW,199,1.8,3.5,51,0.00,CLR,,0.00,WeatherDisplay:10.37,2013-10-20 22:16:00,
2013-10-20 18:21:00,60.6,42.4,30.00,South,177,0.0,0.0,51,0.00,CLR,,0.00,WeatherDisplay:10.37,2013-10-20 22:21:00,
2013-10-20 18:26:00,60.1,42.4,30.00,SSE,155,0.6,1.1,52,0.00,CLR,,0.00,WeatherDisplay:10.37,2013-10-20 22:26:00,
2013-10-20 18:31:00,59.7,42.1,30.00,South,177,2.2,2.7,52,0.00,CLR,,0.00,WeatherDisplay:10.37,2013-10-20 22:31:00,
2013-10-20 18:36:00,59.4,42.2,30.00,SSW,199,2.2,2.3,53,0.00,CLR,,0.00,WeatherDisplay:10.37,2013-10-20 22:36:00,
2013-10-20 18:41:00,58.8,41.7,30.00,SSW,199,0.0,0.0,53,0.00,CLR,,0.00,WeatherDisplay:10.37,2013-10-20 22:41:00,
2013-10-20 18:46:00,58.5,41.9,30.00,South,177,1.5,2.3,54,0.00,CLR,,0.00,WeatherDisplay:10.37,2013-10-20 22:46:00,
2013-10-20 18:51:00,57.9,41.4,30.00,SW,222,1.3,1.3,54,0.00,CLR,,0.00,WeatherDisplay:10.37,2013-10-20 22:51:00,
2013-10-20 18:56:00,57.4,41.3,30.00,WSW,245,0.0,0.0,55,0.00,CLR,,0.00,WeatherDisplay:10.37,2013-10-20 22:56:00,
2013-10-20 19:01:00,56.8,40.8,30.00,SW,222,0.7,1.3,55,0.00,CLR,,0.00,WeatherDisplay:10.37,2013-10-20 23:01:00,
2013-10-20 19:06:00,56.1,40.2,30.00,SSW,199,0.9,1.1,55,0.00,CLR,,0.00,WeatherDisplay:10.37,2013-10-20 23:06:00,
2013-10-20 19:11:00,55.8,40.3,30.00,SSW,199,0.0,0.0,56,0.00,CLR,,0.00,WeatherDisplay:10.37,2013-10-20 23:11:00,
2013-10-20 19:16:00,55.0,40.1,30.00,SSW,199,0.2,1.1,57,0.00,CLR,,0.00,WeatherDisplay:10.37,2013-10-20 23:16:00,
2013-10-20 19:21:00,54.7,39.7,30.00,SW,222,0.0,0.0,57,0.00,CLR,,0.00,WeatherDisplay:10.37,2013-10-20 23:21:00,
2013-10-20 19:26:00,54.1,39.7,30.00,South,177,0.4,1.1,58,0.00,CLR,,0.00,WeatherDisplay:10.37,2013-10-20 23:26:00,
2013-10-20 19:31:00,53.8,39.3,30.00,South,177,0.9,2.3,58,0.00,CLR,,0.00,WeatherDisplay:10.37,2013-10-20 23:31:00,
2013-10-20 19:36:00,53.4,39.0,30.00,South,177,0.0,0.0,58,0.00,CLR,,0.00,WeatherDisplay:10.37,2013-10-20 23:36:00,
2013-10-20 19:41:00,53.2,39.3,30.00,South,177,0.0,0.0,59,0.00,CLR,,0.00,WeatherDisplay:10.37,2013-10-20 23:41:00,
2013-10-20 19:46:00,52.9,38.9,30.00,SW,222,0.5,1.1,59,0.00,CLR,,0.00,WeatherDisplay:10.37,2013-10-20 23:46:00,
2013-10-20 19:51:00,52.5,39.0,30.00,SW,222,0.0,0.0,60,0.00,CLR,,0.00,WeatherDisplay:10.37,2013-10-20 23:51:00,
2013-10-20 19:56:00,52.3,38.9,30.00,SSW,199,0.0,0.0,60,0.00,CLR,,0.00,WeatherDisplay:10.37,2013-10-20 23:56:00,
2013-10-20 20:01:00,52.0,38.9,30.01,SW,222,0.0,0.0,61,0.00,CLR,,0.00,WeatherDisplay:10.37,2013-10-21 00:01:00,
2013-10-20 20:06:00,51.6,38.6,30.01,SSE,155,0.0,0.0,61,0.00,CLR,,0.00,WeatherDisplay:10.37,2013-10-21 00:06:00,
2013-10-20 20:11:00,51.3,39.1,30.01,South,177,0.0,0.0,63,0.00,CLR,,0.00,WeatherDisplay:10.37,2013-10-21 00:11:00,
2013-10-20 20:16:00,50.9,38.7,30.01,SSE,155,0.0,0.0,63,0.00,CLR,,0.00,WeatherDisplay:10.37,2013-10-21 00:16:00,
2013-10-20 20:21:00,50.5,38.8,30.01,South,177,1.3,1.3,64,0.00,CLR,,0.00,WeatherDisplay:10.37,2013-10-21 00:21:00,
2013-10-20 20:26:00,50.4,39.0,30.01,SSW,199,0.0,0.0,65,0.00,CLR,,0.00,WeatherDisplay:10.37,2013-10-21 00:26:00,
2013-10-20 20:31:00,50.2,38.9,30.01,SW,222,0.0,0.0,65,0.00,CLR,,0.00,WeatherDisplay:10.37,2013-10-21 00:31:00,
2013-10-20 20:36:00,50.2,38.9,30.01,South,177,0.0,0.0,65,0.00,CLR,,0.00,WeatherDisplay:10.37,2013-10-21 00:36:00,
2013-10-20 20:41:00,49.8,38.5,30.01,SSW,199,0.0,0.0,65,0.00,CLR,,0.00,WeatherDisplay:10.37,2013-10-21 00:41:00,
2013-10-20 20:46:00,49.8,38.5,30.01,SSW,199,0.0,0.0,65,0.00,CLR,,0.00,WeatherDisplay:10.37,2013-10-21 00:46:00,
2013-10-20 20:51:00,49.6,38.3,30.01,SSW,199,0.0,0.0,65,0.00,CLR,,0.00,WeatherDisplay:10.37,2013-10-21 00:51:00,
2013-10-20 20:56:00,49.3,38.4,30.01,South,177,1.4,2.3,66,0.00,CLR,,0.00,WeatherDisplay:10.37,2013-10-21 00:56:00,
2013-10-20 21:01:00,49.3,38.4,30.01,SSW,199,1.4,1.4,66,0.00,CLR,,0.00,WeatherDisplay:10.37,2013-10-21 01:01:00,
2013-10-20 21:06:00,49.1,38.2,30.02,SW,222,0.0,0.0,66,0.00,CLR,,0.00,WeatherDisplay:10.37,2013-10-21 01:06:00,
2013-10-20 21:11:00,49.1,38.2,30.02,SSW,199,0.0,0.0,66,0.00,CLR,,0.00,WeatherDisplay:10.37,2013-10-21 01:11:00,
2013-10-20 21:16:00,48.9,38.4,30.02,SSW,199,0.0,0.0,67,0.00,CLR,,0.00,WeatherDisplay:10.37,2013-10-21 01:16:00,
2013-10-20 21:21:00,48.7,38.3,30.02,SW,222,1.3,1.3,67,0.00,CLR,,0.00,WeatherDisplay:10.37,2013-10-21 01:21:00,
2013-10-20 21:26:00,48.7,38.3,30.01,SSE,155,0.0,0.0,67,0.00,CLR,,0.00,WeatherDisplay:10.37,2013-10-21 01:26:00,
2013-10-20 21:31:00,48.6,38.1,30.01,SSW,199,1.2,1.2,67,0.00,CLR,,0.00,WeatherDisplay:10.37,2013-10-21 01:31:00,
2013-10-20 21:36:00,48.4,37.9,30.01,SSE,155,0.0,1.1,67,0.00,CLR,,0.00,WeatherDisplay:10.37,2013-10-21 01:36:00,
2013-10-20 21:41:00,48.2,38.1,30.01,SSW,199,0.2,1.1,68,0.00,CLR,,0.00,WeatherDisplay:10.37,2013-10-21 01:41:00,
2013-10-20 21:46:00,48.0,38.0,30.01,SSW,199,1.0,3.5,68,0.00,CLR,,0.00,WeatherDisplay:10.37,2013-10-21 01:46:00,
2013-10-20 21:51:00,48.0,38.0,30.01,SSE,155,0.0,0.0,68,0.00,CLR,,0.00,WeatherDisplay:10.37,2013-10-21 01:51:00,
2013-10-20 21:56:00,47.8,37.8,30.01,SSW,199,0.6,1.3,68,0.00,CLR,,0.00,WeatherDisplay:10.37,2013-10-21 01:56:00,
2013-10-20 22:01:00,47.7,38.0,30.01,SSW,199,0.0,0.0,69,0.00,CLR,,0.00,WeatherDisplay:10.37,2013-10-21 02:01:00,
2013-10-20 22:06:00,47.5,37.8,30.01,South,177,0.0,0.0,69,0.00,CLR,,0.00,WeatherDisplay:10.37,2013-10-21 02:06:00,
2013-10-20 22:11:00,47.3,37.6,30.01,SSW,199,0.6,2.3,69,0.00,CLR,,0.00,WeatherDisplay:10.37,2013-10-21 02:11:00,
2013-10-20 22:16:00,47.1,37.5,30.01,SSE,155,2.3,2.3,69,0.00,CLR,,0.00,WeatherDisplay:10.37,2013-10-21 02:16:00,
2013-10-20 22:21:00,47.1,37.8,30.01,South,177,0.0,0.0,70,0.00,CLR,,0.00,WeatherDisplay:10.37,2013-10-21 02:21:00,
2013-10-20 22:26:00,46.9,37.7,30.01,South,177,0.6,1.3,70,0.00,CLR,,0.00,WeatherDisplay:10.37,2013-10-21 02:26:00,
2013-10-20 22:31:00,46.9,37.7,30.01,SSE,155,0.3,1.1,70,0.00,CLR,,0.00,WeatherDisplay:10.37,2013-10-21 02:31:00,
2013-10-20 22:36:00,46.8,37.9,30.01,SSE,155,1.8,2.3,71,0.00,CLR,,0.00,WeatherDisplay:10.37,2013-10-21 02:36:00,
2013-10-20 22:41:00,46.8,37.9,30.01,South,177,4.5,4.6,71,0.00,CLR,,0.00,WeatherDisplay:10.37,2013-10-21 02:41:00,
2013-10-20 22:46:00,46.6,37.7,30.01,SSW,199,1.6,3.5,71,0.00,CLR,,0.00,WeatherDisplay:10.37,2013-10-21 02:46:00,
2013-10-20 22:51:00,46.6,37.7,30.01,SSW,199,1.4,1.4,71,0.00,CLR,,0.00,WeatherDisplay:10.37,2013-10-21 02:51:00,
2013-10-20 22:56:00,46.4,37.5,30.02,South,177,1.7,2.3,71,0.00,CLR,,0.00,WeatherDisplay:10.37,2013-10-21 02:56:00,
2013-10-20 23:01:00,46.2,37.3,30.02,South,177,0.0,0.0,71,0.00,CLR,,0.00,WeatherDisplay:10.37,2013-10-21 03:01:00,
2013-10-20 23:06:00,46.2,37.3,30.02,SSE,155,0.0,0.0,71,0.00,CLR,,0.00,WeatherDisplay:10.37,2013-10-21 03:06:00,
2013-10-20 23:11:00,46.0,37.2,30.02,South,177,0.4,1.1,71,0.00,CLR,,0.00,WeatherDisplay:10.37,2013-10-21 03:11:00,
2013-10-20 23:16:00,46.0,37.2,30.01,South,177,0.0,0.0,71,0.00,CLR,,0.00,WeatherDisplay:10.37,2013-10-21 03:16:00,
2013-10-20 23:21:00,45.7,36.8,30.01,South,177,1.1,1.1,71,0.00,CLR,,0.00,WeatherDisplay:10.37,2013-10-21 03:21:00,
2013-10-20 23:26:00,45.5,37.0,30.01,South,177,0.8,1.1,72,0.00,CLR,,0.00,WeatherDisplay:10.37,2013-10-21 03:26:00,
2013-10-20 23:31:00,45.3,36.8,30.01,SSW,199,0.7,1.1,72,0.00,CLR,,0.00,WeatherDisplay:10.37,2013-10-21 03:31:00,
2013-10-20 23:36:00,45.3,36.8,30.01,South,177,0.0,0.0,72,0.00,CLR,,0.00,WeatherDisplay:10.37,2013-10-21 03:36:00,
2013-10-20 23:41:00,45.3,36.8,30.01,South,177,1.0,2.3,72,0.00,CLR,,0.00,WeatherDisplay:10.37,2013-10-21 03:41:00,
2013-10-20 23:46:00,45.1,37.0,30.01,SSE,155,2.0,2.3,73,0.00,CLR,,0.00,WeatherDisplay:10.37,2013-10-21 03:46:00,
2013-10-20 23:51:00,45.0,36.8,30.02,South,177,0.0,0.0,73,0.00,CLR,,0.00,WeatherDisplay:10.37,2013-10-21 03:51:00,
2013-10-20 23:56:00,45.0,36.8,30.01,South,177,0.0,0.0,73,0.00,CLR,,0.00,WeatherDisplay:10.37,2013-10-21 03:56:00,